Du Bois, PA

1:48 AM EDT on October 18, 2017 (GMT -0400)
Du Bois-Jefferson County

Weather History for KDUJ - February, 2015

Change the Weather History Date:

Friday, February 13, 2015

  Actual Average Record
Temperature  
Mean Temperature 6 °F 26 °F  
Max Temperature 14 °F 34 °F 61 °F (1990)
Min Temperature -3 °F 18 °F -3 °F (1967)
Degree Days  
Heating Degree Days 59 39  
Month to date heating degree days 565 520  
Since 1 July heating degree days 4483 4464  
Cooling Degree Days 0 0  
Month to date cooling degree days 0 0  
Year to date cooling degree days 0 0  
Moisture  
Dew Point -3 °F    
Average Humidity 68    
Maximum Humidity 87    
Minimum Humidity 48    
Precipitation  
Precipitation 0.00 in 0.08 in 1.94 in (1971)
Month to date precipitation 0.87 1.05  
Sea Level Pressure  
Sea Level Pressure 30.18 in    
Wind  
Wind Speed 10 mph (WSW)    
Max Wind Speed 17 mph    
Max Gust Speed 23 mph    
Visibility 9 miles    
Events      
T = Trace of Precipitation, MM = Missing Value Source: NWS Daily Summary

Daily Weather History Graph

Daily Weather History Graph

Search for Another Location

Airport or City:

Trip Planner

Search our weather history database for the weather conditions in past years. The results will help you decide how hot, cold, wet, or windy it might be!

Date:

Astronomy

Feb. 13, 2015 Rise Set
Actual Time 7:13 AM EST 5:47 PM EST
Civil Twilight 6:44 AM EST 6:15 PM EST
Nautical Twilight 6:12 AM EST 6:47 PM EST
Astronomical Twilight 5:40 AM EST 7:19 PM EST
Moon 2:15 AM EST (2/13) 12:26 PM EST (2/13)
Length of Visible Light 11h 30m
Length of Day
10h 33m
Waning Crescent, 34% of the Moon is Illuminated
Feb 13
Waning Crescent
Feb 18
New
Feb 25
First Quarter
Mar 5
Full
Mar 13
Last Quarter

Hourly Weather History & Observations

Time (EST) Temp. Windchill Dew Point Humidity Pressure Visibility Wind Dir Wind Speed Gust Speed Precip Events Conditions
12:08 AM 1.9 °F -14.7 °F -4.0 °F 76% 30.10 in 4.0 mi West 11.5 mph - N/A   Haze
12:38 AM 1.9 °F -15.5 °F -4.0 °F 76% 30.10 in 5.0 mi West 12.7 mph 23.0 mph N/A   Haze
12:53 AM 1.9 °F -16.2 °F -4.0 °F 76% 30.21 in 6.0 mi West 13.8 mph - N/A   Haze
1:53 AM 1.0 °F -16.6 °F -5.1 °F 75% 30.21 in 6.0 mi West 12.7 mph 19.6 mph N/A   Haze
2:53 AM 1.0 °F -17.3 °F -4.0 °F 79% 30.21 in 9.0 mi West 13.8 mph - N/A   Overcast
3:53 AM -0.0 °F -17.1 °F -5.1 °F 79% 30.22 in 10.0 mi West 11.5 mph - N/A   Partly Cloudy
4:53 AM -2.0 °F -19.6 °F -6.0 °F 83% 30.23 in 10.0 mi West 11.5 mph - N/A   Clear
5:53 AM -2.0 °F -17.7 °F -6.0 °F 83% 30.24 in 10.0 mi West 9.2 mph - N/A   Scattered Clouds
6:53 AM -2.0 °F -15.4 °F -6.0 °F 83% 30.26 in 10.0 mi West 6.9 mph - N/A   Clear
7:46 AM -2.0 °F -15.4 °F -6.0 °F 83% 30.15 in 10.0 mi West 6.9 mph - N/A   Mostly Cloudy
7:53 AM -2.0 °F -15.4 °F -6.0 °F 83% 30.29 in 10.0 mi West 6.9 mph - N/A   Mostly Cloudy
8:53 AM -0.9 °F -16.4 °F -5.1 °F 83% 30.30 in 10.0 mi West 9.2 mph - N/A   Overcast
9:53 AM 1.9 °F -11.8 °F -2.9 °F 80% 30.30 in 10.0 mi West 8.1 mph - N/A   Mostly Cloudy
10:26 AM 3.9 °F -12.2 °F -2.0 °F 76% 30.16 in 10.0 mi WNW 11.5 mph - N/A   Scattered Clouds
10:53 AM 3.9 °F -11.3 °F -2.9 °F 73% 30.29 in 10.0 mi WSW 10.4 mph - N/A   Partly Cloudy
11:12 AM 6.1 °F -9.5 °F -0.9 °F 73% 30.15 in 10.0 mi WSW 11.5 mph - N/A   Mostly Cloudy
11:40 AM 7.0 °F -8.3 °F -2.0 °F 67% 30.15 in 10.0 mi WNW 11.5 mph - N/A   Scattered Clouds
11:53 AM 7.0 °F -9.1 °F -2.9 °F 64% 30.27 in 10.0 mi West 12.7 mph - N/A   Scattered Clouds
12:05 PM 8.1 °F -7.0 °F -0.9 °F 67% 30.13 in 10.0 mi WNW 11.5 mph - N/A   Mostly Cloudy
12:38 PM 9.0 °F -6.6 °F -0.9 °F 64% 30.11 in 10.0 mi WSW 12.7 mph - N/A   Scattered Clouds
12:53 PM 10.0 °F -5.2 °F -0.9 °F 61% 30.23 in 10.0 mi WSW 12.7 mph - N/A   Scattered Clouds
1:53 PM 10.9 °F -4.7 °F -5.1 °F 49% 30.21 in 10.0 mi SW 13.8 mph - N/A   Clear
2:53 PM 12.9 °F -3.4 °F -4.0 °F 47% 30.18 in 10.0 mi WSW 16.1 mph - N/A   Clear
3:53 PM 12.9 °F -3.4 °F -4.0 °F 47% 30.17 in 10.0 mi West 16.1 mph - N/A   Clear
4:53 PM 12.9 °F -1.6 °F -2.9 °F 49% 30.15 in 10.0 mi WSW 12.7 mph - N/A   Clear
5:53 PM 12.0 °F 0.5 °F -2.9 °F 51% 30.14 in 10.0 mi WSW 8.1 mph - N/A   Clear
6:53 PM 9.0 °F 2.4 °F -2.9 °F 59% 30.13 in 10.0 mi SW 3.5 mph - N/A   Clear
7:53 PM 9.0 °F 2.4 °F -2.9 °F 59% 30.12 in 10.0 mi SSW 3.5 mph - N/A   Clear
8:53 PM 9.0 °F 0.6 °F -2.0 °F 61% 30.10 in 10.0 mi SW 4.6 mph - N/A   Clear
9:53 PM 10.0 °F 0.4 °F -0.9 °F 61% 30.07 in 10.0 mi SW 5.8 mph - N/A   Mostly Cloudy
10:53 PM 12.0 °F -0.4 °F 1.0 °F 61% 30.04 in 10.0 mi SW 9.2 mph - N/A   Overcast
11:53 PM 14.0 °F 2.9 °F 1.9 °F 59% 30.01 in 7.0 mi SW 8.1 mph - N/A   Overcast